Location: Brno
(49.2000°N, 16.6330°E)
Time: 02:11:22
(UTC+02:00)

Cosmos 1603 - Visible Passes

Search period start: 27 September 2016 00:00
Search period end: 07 October 2016 00:00
Orbit: 829 x 861 km, 71.0° (Epoch: 25 September)

Date Brightness Start Highest point End Pass type
(mag) Time Alt. Az. Time Alt. Az. Time Alt. Az.
27 Sep 6.2 03:47:07 10° N 03:51:17 20° NE 03:55:24 10° E visible
27 Sep 3.9 05:30:38 10° NNW 05:36:24 77° ENE 05:42:07 10° SSE visible
27 Sep 3.6 20:26:27 10° SSW 20:32:10 73° ESE 20:37:56 10° NNE visible
27 Sep 5.7 22:12:06 10° W 22:16:53 26° NW 22:21:42 10° NNE visible
28 Sep 6.2 03:33:14 10° N 03:37:20 19° NE 03:41:24 10° E visible
28 Sep 3.9 05:16:43 10° NNW 05:22:29 75° ENE 05:28:11 10° SE visible
28 Sep 3.6 20:12:33 10° SSW 20:18:15 71° ESE 20:24:01 10° NNE visible
28 Sep 5.7 21:58:08 10° W 22:02:57 27° NW 22:07:48 10° NNE visible
29 Sep 6.2 03:19:21 10° N 03:23:23 19° NE 03:27:24 10° E visible
29 Sep 3.9 05:02:48 10° NNW 05:08:35 74° ENE 05:14:16 10° SE visible
29 Sep 3.7 19:58:39 10° SSW 20:04:21 69° ESE 20:10:05 10° NNE visible
29 Sep 5.7 21:44:09 10° WSW 21:49:00 27° NW 21:53:54 10° NNE visible
30 Sep 6.2 03:05:27 10° N 03:09:26 19° NE 03:13:24 10° E visible
30 Sep 4.0 04:48:53 10° NNW 04:54:39 72° ENE 05:00:20 10° SE visible
30 Sep 3.7 19:44:45 10° SSW 19:50:26 68° ESE 19:56:10 10° NNE visible
30 Sep 5.7 21:30:11 10° WSW 21:35:04 28° NW 21:40:00 10° NNE visible
01 Oct 6.2 02:51:34 10° N 02:55:30 18° NE 02:59:24 10° E visible
01 Oct 4.0 04:34:58 10° NNW 04:40:44 70° ENE 04:46:25 10° SE visible
01 Oct 4.8 06:20:02 10° NW 06:24:19 22° W 06:28:33 10° SSW visible
01 Oct 3.7 19:30:51 10° SSW 19:36:32 66° ESE 19:42:15 10° NNE visible
01 Oct 5.6 21:16:12 10° WSW 21:21:08 28° NW 21:26:06 10° NNE visible
01 Oct 6.8 23:07:03 10° NNW 23:07:25 10° NNW 23:07:47 10° NNW visible
02 Oct 6.2 02:37:40 10° N 02:41:33 18° NE 02:45:24 10° ENE visible
02 Oct 4.0 04:21:04 10° NNW 04:26:49 68° ENE 04:32:29 10° SE visible
02 Oct 4.8 06:06:04 10° NW 06:10:25 23° WSW 06:14:44 10° SSW visible
02 Oct 3.7 19:16:57 10° SSW 19:22:37 64° ESE 19:28:20 10° NNE visible
02 Oct 5.6 21:02:14 10° WSW 21:07:12 29° NW 21:12:12 10° NNE visible
02 Oct 6.8 22:52:46 10° NNW 22:53:27 10° NNW 22:54:08 10° NNW visible
03 Oct 6.2 02:23:47 10° N 02:27:36 18° NE 02:31:24 10° ENE visible
03 Oct 4.0 04:07:10 10° NNW 04:12:54 66° ENE 04:18:33 10° SE visible
03 Oct 4.7 05:52:06 10° NW 05:56:31 23° WSW 06:00:53 10° SSW visible
03 Oct 3.8 19:03:03 10° SSW 19:08:43 62° ESE 19:14:24 10° NNE visible
03 Oct 5.6 20:48:16 10° WSW 20:53:16 30° NW 20:58:18 10° NNE visible
03 Oct 6.7 22:38:35 10° NNW 22:39:30 10° NNW 22:40:24 10° NNW visible
04 Oct 6.2 02:09:53 10° N 02:13:39 17° NE 02:17:24 10° ENE visible
04 Oct 4.0 03:53:15 10° NNW 03:58:59 65° ENE 04:04:37 10° SE visible
04 Oct 4.7 05:38:09 10° NW 05:42:38 24° WSW 05:47:03 10° SSW visible
04 Oct 3.8 18:49:10 10° S 18:54:48 61° ESE 19:00:29 10° NE visible
04 Oct 5.6 20:34:18 10° WSW 20:39:20 30° NW 20:44:24 10° NNE visible
04 Oct 6.7 22:24:27 10° NNW 22:25:32 10° NNW 22:26:36 10° N visible
05 Oct 6.2 01:56:00 10° N 01:59:43 17° NE 02:03:23 10° ENE visible
05 Oct 4.0 03:39:20 10° NNW 03:45:03 63° ENE 03:50:41 10° SE visible
05 Oct 4.6 05:24:12 10° NW 05:28:44 25° WSW 05:33:13 10° SSW visible
05 Oct 5.5 20:20:20 10° WSW 20:25:24 31° NW 20:30:30 10° NNE visible
05 Oct 6.7 22:10:20 10° NW 22:11:34 11° NNW 22:12:48 10° N visible
06 Oct 6.2 01:42:07 10° N 01:44:45 16° NNE 01:44:45 16° NNE visible
06 Oct 5.9 03:25:26 10° NNW 03:37:22 - SE 03:26:30 16° NNW visible
06 Oct5.805:19:32SSW05:19:32SSW05:08:15NWvisible
06 Oct 5.5 20:06:22 10° WSW 20:11:28 32° NW 20:16:36 10° NNE visible
06 Oct 6.6 21:56:14 10° NW 21:57:37 11° NNW 21:58:59 10° N visible
